Weather History for KFBG - October, 2012

Change the Weather History Date:

Tuesday, October 30, 2012

  Actual Average Record
Temperature  
Mean Temperature 48 °F -  
Max Temperature 53 °F 67 °F 84 °F (1996)
Min Temperature 44 °F 47 °F 32 °F (2011)
Degree Days  
Heating Degree Days 17    
Moisture  
Dew Point 34 °F    
Average Humidity 58    
Maximum Humidity 76    
Minimum Humidity 46    
Precipitation  
Precipitation 0.01 in - - ()
Sea Level Pressure  
Sea Level Pressure 29.47 in    
Wind  
Wind Speed 15 mph (WSW)    
Max Wind Speed 23 mph    
Max Gust Speed 31 mph    
Visibility 10 miles    
Events Rain    
Averages and records for this station are not official NWS values.
T = Trace of Precipitation, MM = Missing Value Source: NWS Daily Summary

Daily Weather History Graph

Daily Weather History Graph

Search for Another Location

Airport or City:

Trip Planner

Search our weather history database for the weather conditions in past years. The results will help you decide how hot, cold, wet, or windy it might be!

Date:

Astronomy

Oct. 30, 2012 Rise Set
Actual Time 7:35 AM EDT 6:22 PM EDT
Civil Twilight 7:09 AM EDT 6:48 PM EDT
Nautical Twilight 6:39 AM EDT 7:18 PM EDT
Astronomical Twilight 6:09 AM EDT 7:48 PM EDT
Moon 6:54 PM EDT (10/30) 8:17 AM EDT (10/30)
Length of Visible Light 11h 39m
Length of Day
10h 47m
Full, 99% of the Moon is Illuminated
Oct 30
Full
Nov 6
Last Quarter
Nov 13
New
Nov 20
First Quarter
Nov 28
Full

Hourly Weather History & Observations

Time (EDT) Temp. Windchill Dew Point Humidity Pressure Visibility Wind Dir Wind Speed Gust Speed Precip Events Conditions
12:55 AM 46.0 °F 39.3 °F 34.9 °F 65% 29.38 in 10.0 mi West 16.1 mph 26.5 mph 0.00 in Rain Light Rain
1:55 AM 45.0 °F 38.5 °F 36.7 °F 73% 29.37 in 10.0 mi West 13.8 mph - 0.01 in Rain Light Rain
2:18 AM 44.6 °F 38.4 °F 37.4 °F 76% 29.36 in 10.0 mi WSW 12.7 mph 20.7 mph N/A   Clear
2:55 AM 45.3 °F 37.8 °F 35.4 °F 68% 29.36 in 10.0 mi West 18.4 mph - 0.00 in   Mostly Cloudy
3:03 AM 46.4 °F 40.1 °F 35.6 °F 66% 29.36 in 10.0 mi West 15.0 mph - N/A   Light Drizzle
3:28 AM 44.6 °F 37.8 °F 33.8 °F 66% 29.37 in 10.0 mi West 15.0 mph 25.3 mph N/A   Scattered Clouds
3:55 AM 46.0 °F 39.9 °F 33.6 °F 62% 29.37 in 10.0 mi WSW 13.8 mph 24.2 mph 0.00 in   Clear
4:55 AM 47.1 °F - 31.6 °F 55% 29.38 in 10.0 mi West 19.6 mph 27.6 mph 0.00 in   Light Drizzle
5:15 AM 46.4 °F 39.5 °F 32.0 °F 57% 29.39 in 10.0 mi West 17.3 mph 27.6 mph N/A   Scattered Clouds
5:28 AM 46.4 °F 39.0 °F 32.0 °F 57% 29.39 in 10.0 mi West 19.6 mph 31.1 mph N/A   Light Drizzle
5:45 AM 46.4 °F 41.1 °F 32.0 °F 57% 29.40 in 10.0 mi West 11.5 mph 27.6 mph N/A   Scattered Clouds
5:55 AM 46.6 °F - 30.9 °F 54% 29.39 in 10.0 mi West 20.7 mph 26.5 mph 0.00 in   Light Drizzle
6:55 AM 45.5 °F 37.1 °F 31.5 °F 58% 29.41 in 10.0 mi West 23.0 mph - 0.00 in Rain Light Rain
7:02 AM 46.4 °F 38.7 °F 30.2 °F 53% 29.42 in 10.0 mi West 20.7 mph 27.6 mph N/A   Clear
7:55 AM 47.1 °F - 29.5 °F 50% 29.42 in 10.0 mi WSW 15.0 mph - 0.00 in   Partly Cloudy
8:55 AM 47.7 °F - 29.7 °F 50% 29.44 in 10.0 mi WSW 13.8 mph 20.7 mph N/A   Clear
9:55 AM 48.9 °F - 30.0 °F 48% 29.46 in 10.0 mi WSW 20.7 mph 29.9 mph N/A   Clear
10:33 AM 50.0 °F - 32.0 °F 50% 29.47 in 10.0 mi West 16.1 mph - N/A Rain Light Rain
10:55 AM 48.0 °F - 31.8 °F 54% 29.48 in 10.0 mi WSW 19.6 mph - 0.00 in Rain Light Rain
11:46 AM 48.2 °F - 32.0 °F 54% 29.48 in 10.0 mi WSW 13.8 mph 23.0 mph N/A   Clear
11:55 AM 49.1 °F - 31.5 °F 51% 29.48 in 10.0 mi WSW 19.6 mph 25.3 mph 0.00 in   Clear
12:55 PM 50.9 °F - 32.5 °F 49% 29.48 in 10.0 mi WSW 17.3 mph 25.3 mph N/A   Partly Cloudy
1:55 PM 51.8 °F - 33.4 °F 50% 29.48 in 10.0 mi WSW 15.0 mph 27.6 mph 0.00 in   Light Drizzle
3:55 PM 52.5 °F - 32.2 °F 46% 29.49 in 10.0 mi WSW 16.1 mph 21.9 mph N/A   Partly Cloudy
4:55 PM 51.8 °F - 34.0 °F 51% 29.51 in 10.0 mi West 9.2 mph - N/A   Clear
5:04 PM 51.8 °F - 35.6 °F 54% 29.52 in 10.0 mi West 8.1 mph - N/A Rain Light Rain
5:13 PM 51.8 °F - 35.6 °F 54% 29.52 in 10.0 mi West 8.1 mph - N/A   Scattered Clouds
5:27 PM 51.8 °F - 35.6 °F 54% 29.53 in 10.0 mi WNW 11.5 mph 18.4 mph N/A Rain Light Rain
5:55 PM 48.4 °F - 38.7 °F 69% 29.54 in 10.0 mi WNW 10.4 mph - 0.00 in Rain Light Rain
6:17 PM 48.2 °F - 39.2 °F 71% 29.55 in 10.0 mi West 10.4 mph - N/A   Partly Cloudy
6:55 PM 48.6 °F - 37.4 °F 65% 29.57 in 10.0 mi West 10.4 mph - 0.00 in   Partly Cloudy
7:55 PM 48.7 °F - 35.8 °F 61% 29.59 in 10.0 mi West 15.0 mph - N/A   Mostly Cloudy
8:55 PM 48.2 °F - 35.4 °F 61% 29.61 in 10.0 mi WSW 11.5 mph - N/A   Clear
9:55 PM 47.5 °F - 34.7 °F 61% 29.63 in 10.0 mi WSW 9.2 mph - N/A   Mostly Cloudy
10:55 PM 45.9 °F 42.3 °F 34.0 °F 63% 29.64 in 10.0 mi WSW 6.9 mph - N/A   Scattered Clouds
11:55 PM 44.8 °F 41.0 °F 34.0 °F 66% 29.64 in 10.0 mi West 6.9 mph - N/A   Mostly Cloudy